Location: Unspecified
(0.0000°N, 0.0000°E)
Time: 06:03:49
(UTC+00:00)

Hubble Space Telescope - Pass Details

Date: 25 November 2020
Orbit: 536 x 540 km, 28.5° (Epoch: 03 December)

Event Time Altitude Azimuth Distance (km) Brightness Sun altitude
Rises 19:21:38 0° 271° (W) 2,665 5.5 -22.0°
Reaches altitude 10° 19:24:36 10° 293° (WNW) 1,772 4.0 -22.6°
Maximum altitude 19:27:11 16° 332° (NNW) 1,429 3.0 -23.2°
Enters shadow 19:27:26 16° 336° (NNW) 1,432 2.9 -23.3°
